Weather in Rostock

Germany     54°05′13″N   12°06′16″E
temp.,
°C
wind,
m/s
gust,
m/s
humid.,
%
clouds,
%
prec.,
mm/h
press.,
hPa
HPBL,
m
23 june, wed
wed2323:00+12w33840 0.0 101740
02:00+10w349444 0.0 101871
05:00+10wsw33968 0.0 101854
08:00+14w348341 0.0 1018410
11:00+18wnw3372100 0.1 1019854
14:00+19wnw3268100 0.1 1020904
17:00+20wnw2364100 0.0 10201048
20:00+18nnw2378100 0.0 1020107
24 june, thu
thu2423:00+14n118927 0.0 102111
02:00+13wnw11891 0.0 102011
05:00+12w019027 0.0 102010
08:00+17nw22805 0.0 1020355
11:00+20nnw326697 0.1 10201071
14:00+21nnw4365100 0.1 10191017
17:00+19nnw4473100 0.1 1018650
20:00+17nnw2382100 0.1 1017275
25 june, fri
fri2523:00+13nw229183 0.0 101716
02:00+12wnw22890 0.0 101717
05:00+12wnw229119 0.0 101611
08:00+17nw337619 0.0 1017521
11:00+19nw436674 0.1 10171122
14:00+19nw4366100 0.2 10171012
17:00+19nw4461100 0.1 1017972
20:00+17nnw23674 0.1 1017176
26 june, sat
sat2623:00+12wnw22680 0.0 101816
02:00+11wsw22817 0.0 101817
05:00+10wsw22915 0.0 101920
08:00+16w33755 0.0 1019417
11:00+19w446462 0.0 1019848
14:00+19wnw346743 0.0 1019715
17:00+21nw33617 0.1 10191114
20:00+19nnw2376100 0.1 1019129
27 june, sun
sun2723:00+15nnw118761 0.0 102011
02:00+14wsw118899 0.0 101911
05:00+13ssw1190100 0.0 101910
08:00+18ssw117742 0.0 1019241
11:00+22wnw1162100 0.0 1019972
14:00+24wnw1258100 0.5 10181329
17:00+23nne326552 1.0 1018646
20:00+21ene4677100 1.3 1018283